Miscellaneous Local Product
Issued by NWS North Platte, NE

Home | Current Version | Previous Version | Text Only | Print | Product List | Glossary On
Versions: 1 2 3 4 5 6 7 8 9 10 11 12 13 14 15 16 17 18 19 20 21 22 23 24 25 26 27 28 29 30 31 32 33 34 35 36 37 38 39 40 41 42 43 44 45 46 47 48 49 50
000
AXUS43 KLBF 262110
MISLBF


WESTERN AND NORTH CENTRAL NEBRASKA HOURLY WEATHER ROUNDUP
NATIONAL WEATHER SERVICE NORTH PLATTE NE
400 PM CDT MON JUN 26 2017

NOTE: "FAIR" INDICATES FEW OR NO CLOUDS BELOW 12,000 FEET WITH NO
SIGNIFICANT WEATHER AND/OR OBSTRUCTIONS TO VISIBILITY.

NOTE: STATIONS NOT REPORTING VARIABLES SUCH AS SKY/WEATHER OR
PRESSURE ARE PROVIDED BY RAWS AND APRS NETWORKS AND ARE NOT UNDER
NATIONAL WEATHER SERVICE QUALITY CONTROL.

...OBSERVATIONS IN AND NEAR THE EASTERN PANHANDLE OF NEBRASKA...

CITY           SKY/WX    TMP DP  RH WIND       PRES   REMARKS
PINE RIDGE     SUNNY     78  39  24 VRB3      30.16F
GORDON         FAIR      75  37  24 SE6       30.17F
CHADRON        SUNNY     80  36  20 CALM      30.13F
ALLIANCE       SUNNY     80  36  20 NE8       30.16F
SIDNEY         SUNNY     84  48  28 NE9       30.16F
CRESCENT LAKE    N/A     80  39  23 E8G17       N/A
$$

...OBSERVATIONS IN NORTHERN NEBRASKA AND FAR SOUTHERN SOUTH DAKOTA...

CITY           SKY/WX    TMP DP  RH WIND       PRES   REMARKS
WINNER         FAIR      77  38  24 VRB3      30.17F
VALENTINE      SUNNY     80  36  20 NE13      30.17F
THEDFORD       SUNNY     78  42  27 E16G22    30.18F
AINSWORTH      SUNNY     75  41  30 NE7       30.18F
O`NEILL        SUNNY     74  40  29 N8        30.18F
ORD            SUNNY     78  41  26 N12       30.14F
BROKEN BOW     SUNNY     79  46  31 NE12      30.15F
VALENTINE NWR    N/A     74  42  31 NE9G16      N/A
HALSEY           N/A     77  39  25 NE8G17      N/A
BUTTE            N/A     71  40  32 NE8G17      N/A
CHAMBERS         N/A     77  46  32 CALM        N/A
EWING            N/A     73  48  41 N3          N/A
$$

...OBSERVATIONS IN SOUTHWEST NEBRASKA AND FAR NORTHEAST COLORADO...

CITY           SKY/WX    TMP DP  RH WIND       PRES   REMARKS
WRAY           FAIR      86  52  30 E6        30.13F
IMPERIAL       SUNNY     85  55  35 NE9G20    30.12F
OGALLALA       SUNNY     83  47  27 E13G22    30.14F
NORTH PLATTE   SUNNY     81  46  29 NE16      30.14F
MCCOOK         SUNNY     81  60  48 E18       30.10F
LEXINGTON      MOSUNNY   78  58  49 E12       30.13F
STAPLETON        N/A     76  42  29 E3G14       N/A
GOTHENBURG       N/A     73  58  59 E6          N/A
CALLAWAY         N/A     77  52  41 E10         N/A
$$

...OBSERVATIONS IN CENTRAL LINCOLN COUNTY AREA...

CITY           SKY/WX    TMP DP  RH WIND       PRES   REMARKS
N.P. AIRPORT   SUNNY     81  46  29 NE16      30.14F
N.P. DOWNTOWN    N/A     78  46  32 E7G16       N/A
N.P. SOUTHEAST   N/A     79  47  32 NE5G13      N/A
N.P. HILLCREST   N/A     77  45  31 E16G24      N/A
$$

...SOME OBSERVATIONS FROM AROUND THE REGION...

CITY           SKY/WX    TMP DP  RH WIND       PRES   REMARKS
DENVER         MOSUNNY   87  39  18 NE13G21   30.17F
LIMON          CLOUDY    87  34  15 VRB3      30.17F
ASPEN          SUNNY     82  22  11 N8G18     30.30F
LARAMIE        SUNNY     81  29  15 NW14G21   30.27F
CASPER         SUNNY     87  30  13 SW9       30.12F
CHEYENNE       SUNNY     81  39  22 S9        30.22F
SCOTTSBLUFF    SUNNY     83  42  23 SE9       30.14F
GRAND ISLAND   SUNNY     78  54  43 N10       30.13S
OMAHA          MOSUNNY   77  52  41 N10       30.12F
SIOUX FALLS    MOSUNNY   70  44  39 MISG      30.17F
PIERRE         SUNNY     73  41  31 E6        30.15F
RAPID CITY     CLOUDY    78  39  24 SE15      30.13F
BISMARCK       SUNNY     76  44  32 VRB6      30.14F
KANSAS CITY    CLOUDY    68  55  63 S9        30.14F
HILL CITY      MOSUNNY   83  62  49 SW6       30.10F
WICHITA        MOSUNNY   87  58  37 VRB6      30.06F
DODGE CITY     SUNNY     85  63  47 VRB5      30.10F
OKLAHOMA CITY  MOSUNNY   85  56  37 VRB6      30.08F
DALLAS         CLOUDY    86  70  58 E5        30.04F HX  90
AMARILLO       SUNNY     84  53  34 VRB3      30.16F
$$




USA.gov is the U.S. government's official web portal to all federal, state and local government web resources and services.